FW6321 Weather Reports


time (UTC)temp
F
wind
direction
speed
knots
gust
knots
rain 1hr
in
rain 24hr
in
rain mn
in
humidity
%
barometer
mb
20260905095716 68 298 9.6 21.7 0.00 0.09 0.00 70 1021.9
20260905095212 68 207 11.3 21.7 0.00 0.09 0.00 69 1021.9
20260905094705 68 248 10.4 21.7 0.00 0.09 0.00 68 1021.8
20260905094202 69 280 8.7 17.4 0.00 0.09 0.00 70 1021.8
20260905094151 68 199 9.6 20.0 0.00 0.09 0.00 71 1021.7
20260905093644 68 237 11.3 20.0 0.00 0.09 0.00 70 1021.6
20260905093146 67 226 9.6 21.7 0.00 0.09 0.00 72 1021.7
20260905092159 67 241 10.4 21.7 0.00 0.09 0.00 72 1021.6
20260905091659 67 252 11.3 22.6 0.00 0.09 0.00 72 1021.5
20260905091159 67 247 10.4 22.6 0.00 0.09 0.00 74 1021.3
20260905090659 67 204 10.4 18.2 0.00 0.09 0.00 73 1021.4
20260905090200 67 235 10.4 21.7 0.00 0.09 0.00 73 1021.3
20260905085700 66 242 9.6 21.7 0.00 0.09 0.00 74 1021.4
20260905085201 66 290 7.8 20.0 0.00 0.09 0.00 76 1021.2
20260905084701 66 255 7.0 15.6 0.00 0.09 0.00 76 1021.1
20260905084153 66 231 6.1 12.2 0.00 0.09 0.00 77 1021.0
20260905083652 66 246 7.8 17.4 0.00 0.09 0.00 76 1021.0
20260905083148 66 275 10.4 17.4 0.00 0.09 0.00 75 1021.0
20260905082651 66 229 9.6 16.5 0.00 0.09 0.00 76 1020.8
20260905082151 66 240 8.7 14.8 0.00 0.09 0.00 77 1020.7
20260905082130 66 230 7.8 14.8 0.00 0.09 0.00 77 1020.6
20260905081634 65 242 7.8 14.8 0.00 0.09 0.00 79 1020.5
20260905081148 65 227 7.8 14.8 0.00 0.09 0.00 78 1020.5
20260905080150 65 239 7.0 14.8 0.00 0.09 0.00 79 1020.4
20260905075650 65 208 6.1 13.9 0.00 0.09 0.00 80 1020.4
20260905075150 65 241 7.0 13.9 0.00 0.09 0.00 80 1020.4
20260905075137 65 204 7.8 13.9 0.00 0.09 0.00 80 1020.2
20260905074147 65 211 7.8 16.5 0.00 0.09 0.00 81 1020.2
20260905073648 64 260 7.8 16.5 0.00 0.09 0.00 81 1019.9
20260905073151 64 233 8.7 16.5 0.00 0.09 0.00 82 1020.0
20260905073132 64 230 8.7 16.5 0.00 0.09 0.00 82 1020.0
20260905072146 64 240 7.0 13.9 0.00 0.09 0.00 83 1019.9
20260905071648 64 241 6.1 12.2 0.00 0.09 0.00 84 1019.8
20260905071149 64 237 6.1 10.4 0.00 0.09 0.00 85 1019.7
20260905070650 63 273 6.1 11.3 0.00 0.09 0.00 85 1019.7
20260905070235 63 177 5.2 10.4 0.00 0.09 0.00 86 1019.6
20260905070203 63 233 5.2 11.3 0.00 0.09 0.00 86 1019.7
20260905065148 63 239 4.3 10.4 0.00 0.09 0.00 86 1019.7
20260905065136 62 253 4.3 8.7 0.00 0.09 0.00 87 1019.5
20260905064147 62 218 3.5 8.7 0.00 0.09 0.00 87 1019.5
20260905063849 62 216 4.3 7.8 0.00 0.09 0.00 87 1019.5
20260905063353 62 223 4.3 7.8 0.00 0.09 0.00 88 1019.5
20260905062151 62 208 3.5 7.8 0.00 0.09 0.00 89 1019.3
20260905061646 61 211 4.3 8.7 0.00 0.09 0.00 90 1019.2
20260905061144 61 229 3.5 8.7 0.00 0.09 0.00 90 1019.2
20260905060641 60 185 3.5 8.7 0.00 0.09 0.00 91 1019.2
20260905060140 60 229 3.5 8.7 0.00 0.09 0.00 91 1019.2
20260905055641 60 232 3.5 7.0 0.00 0.09 0.00 91 1019.1
20260905055142 60 214 2.6 7.0 0.00 0.09 0.00 91 1019.1
20260905054640 59 210 2.6 7.0 0.00 0.09 0.00 91 1019.1
20260905054139 59 247 2.6 7.0 0.00 0.09 0.00 92 1019.0
20260905053639 59 189 3.5 7.0 0.00 0.09 0.00 91 1018.9
20260905053140 58 200 2.6 7.0 0.00 0.09 0.00 91 1018.9
20260905052638 58 221 2.6 7.0 0.00 0.09 0.00 91 1018.9
20260905052136 58 197 2.6 5.2 0.00 0.09 0.00 91 1018.8
20260905051638 58 222 2.6 6.1 0.00 0.09 0.00 91 1018.7
20260905051135 58 219 2.6 6.1 0.00 0.09 0.00 91 1018.7
20260905050637 58 209 2.6 5.2 0.00 0.09 0.00 91 1018.6
20260905050133 58 212 2.6 6.1 0.00 0.09 0.00 91 1018.6
20260905045634 58 215 2.6 7.8 0.00 0.09 0.00 91 1018.5
20260905045609 58 234 3.5 7.8 0.00 0.09 0.00 91 1018.5
20260905044631 58 220 2.6 7.0 0.00 0.09 0.00 91 1018.5
20260905044130 58 224 2.6 7.0 0.00 0.09 0.00 91 1018.4
20260905043630 58 242 2.6 7.0 0.00 0.09 0.00 90 1018.3
20260905043135 58 225 2.6 7.0 0.00 0.09 0.00 90 1018.3
20260905042631 58 245 2.6 5.2 0.00 0.09 0.00 90 1018.3
20260905042130 58 232 2.6 6.1 0.00 0.09 0.00 90 1018.3
20260905041634 58 233 2.6 6.1 0.00 0.09 0.00 90 1018.3
20260905041132 58 233 2.6 5.2 0.00 0.09 0.00 90 1018.3
20260905040833 58 229 2.6 7.0 0.00 0.09 0.00 90 1018.3
20260905040337 58 205 2.6 7.0 0.00 0.09 0.00 89 1018.2
20260905035130 57 202 2.6 6.1 0.00 0.09 0.00 89 1018.2
20260905035119 57 221 2.6 6.1 0.00 0.09 0.00 88 1018.1
20260905034132 57 220 1.7 4.3 0.00 0.09 0.00 88 1018.1
20260905034120 57 201 1.7 3.5 0.00 0.09 0.00 88 1018.1
20260905033132 57 208 1.7 3.5 0.00 0.09 0.00 87 1018.1
20260905032632 57 207 1.7 4.3 0.00 0.09 0.00 87 1018.2
20260905032131 58 208 1.7 4.3 0.00 0.09 0.00 87 1018.0
20260905031628 58 203 1.7 3.5 0.00 0.09 0.00 86 1018.0
20260905031610 58 208 1.7 3.5 0.00 0.09 0.00 86 1017.9
20260905031106 58 224 1.7 3.5 0.00 0.09 0.00 86 1017.8
20260905030125 58 216 1.7 3.5 0.00 0.09 0.00 86 1017.8
20260905025625 59 222 1.7 5.2 0.00 0.09 0.00 86 1017.6
20260905025123 59 237 2.6 5.2 0.00 0.09 0.00 86 1017.6
20260905024623 59 217 2.6 5.2 0.00 0.09 0.00 85 1017.6
20260905024122 59 224 2.6 6.1 0.00 0.09 0.00 85 1017.6
20260905023622 59 236 2.6 6.1 0.00 0.09 0.00 85 1017.6
20260905023123 59 233 2.6 5.2 0.00 0.09 0.00 85 1017.5
20260905022624 59 229 3.5 7.0 0.00 0.09 0.00 85 1017.6
20260905022601 59 226 4.3 7.8 0.00 0.09 0.00 85 1017.6
20260905021620 59 241 3.5 7.8 0.00 0.09 0.00 86 1017.6
20260905021123 59 227 3.5 7.0 0.00 0.09 0.00 86 1017.6
20260905020623 59 223 2.6 7.0 0.00 0.09 0.00 86 1017.5
20260905020618 59 206 2.6 6.1 0.00 0.09 0.00 86 1017.5
20260905020108 59 235 2.6 6.1 0.00 0.09 0.00 86 1017.5
20260905015119 59 227 2.6 7.0 0.00 0.09 0.00 86 1017.5
20260905015108 59 246 2.6 7.0 0.00 0.09 0.00 86 1017.5
20260905014115 59 244 2.6 6.1 0.00 0.09 0.00 86 1017.5
20260905014101 59 246 2.6 6.1 0.00 0.09 0.00 86 1017.3
20260905013113 59 216 2.6 7.0 0.00 0.09 0.00 86 1017.4
20260905012612 59 235 2.6 7.0 0.00 0.09 0.00 85 1017.4
20260905012115 59 207 2.6 6.1 0.00 0.09 0.00 85 1017.3
20260905011614 59 218 2.6 4.3 0.00 0.09 0.00 85 1017.3
20260905011113 59 224 1.7 4.3 0.00 0.09 0.00 85 1017.4
20260905010615 59 229 1.7 3.5 0.00 0.09 0.00 84 1017.4
20260905010113 60 214 1.7 4.3 0.00 0.09 0.00 84 1017.2
20260905005614 60 218 1.7 4.3 0.00 0.09 0.00 84 1017.3
20260905005113 60 217 2.6 5.2 0.00 0.09 0.00 84 1017.2
20260905004613 60 238 2.6 7.8 0.00 0.09 0.00 84 1017.3
20260905004552 60 238 2.6 7.8 0.00 0.09 0.00 84 1017.3
20260905003610 60 211 2.6 6.1 0.00 0.09 0.00 84 1017.2
20260905003113 60 232 2.6 6.1 0.00 0.09 0.00 84 1017.3
20260905002611 60 241 2.6 6.1 0.00 0.09 0.00 84 1017.2
20260905002115 60 240 2.6 6.1 0.00 0.09 0.00 84 1017.3
20260905001610 60 199 2.6 5.2 0.00 0.09 0.00 84 1017.3
20260905001558 60 221 2.6 5.2 0.00 0.09 0.00 83 1017.3
20260905000607 60 195 1.7 5.2 0.00 0.09 0.00 83 1017.3
20260905000104 60 210 2.6 5.2 0.00 0.09 0.00 83 1017.3
20260904235604 60 218 2.6 6.1 0.00 0.09 0.00 83 1017.1
20260904235105 60 206 3.5 6.1 0.00 0.09 0.00 83 1017.1
20260904234602 60 220 3.5 6.1 0.00 0.09 0.00 83 1017.0
20260904234102 60 239 2.6 6.1 0.00 0.09 0.00 82 1017.0
20260904233608 60 238 2.6 5.2 0.00 0.09 0.00 82 1016.9
20260904233104 61 235 2.6 6.1 0.00 0.09 0.00 82 1017.0
20260904232605 61 230 2.6 6.1 0.00 0.09 0.00 81 1017.0
20260904232106 61 200 1.7 4.3 0.00 0.09 0.00 81 1017.0
20260904231602 61 212 2.6 7.0 0.00 0.09 0.00 81 1016.9
20260904231102 62 245 2.6 7.0 0.00 0.09 0.00 80 1016.9
20260904231033 62 238 2.6 7.0 0.00 0.09 0.00 79 1016.9
20260904231028 62 229 2.6 7.0 0.00 0.09 0.00 79 1016.9
20260904230759 62 224 2.6 7.0 0.00 0.09 0.00 80 1016.9
20260904230525 62 212 2.6 7.0 0.00 0.09 0.00 79 1016.9
20260904230303 62 206 2.6 7.0 0.00 0.09 0.00 80 1016.9
20260904224106 62 241 3.5 7.0 0.00 0.09 0.00 79 1016.9
20260904223609 63 228 3.5 6.1 0.00 0.09 0.00 78 1016.9
20260904223544 63 217 3.5 7.8 0.00 0.09 0.00 78 1016.8
20260904222603 63 220 4.3 9.6 0.00 0.09 0.00 78 1016.9
20260904222102 63 231 4.3 9.6 0.00 0.09 0.00 77 1016.8
20260904221608 63 247 4.3 8.7 0.00 0.09 0.00 77 1016.8
20260904221103 63 216 3.5 7.0 0.00 0.09 0.00 77 1016.8
20260904220604 64 227 3.5 8.7 0.00 0.09 0.00 76 1016.8
20260904215602 64 249 4.3 8.7 0.00 0.09 0.09 76 1016.7
20260904215105 64 237 4.3 9.6 0.00 0.09 0.09 76 1016.6
20260904214604 64 243 5.2 9.6 0.00 0.09 0.09 75 1016.6
20260904214104 64 233 5.2 9.6 0.00 0.09 0.09 75 1016.5
20260904213603 64 229 6.1 10.4 0.00 0.09 0.09 75 1016.4
20260904213107 64 227 7.0 10.4 0.00 0.09 0.09 75 1016.5
20260904213048 64 241 7.0 13.0 0.00 0.09 0.09 74 1016.4
20260904212103 64 229 6.1 13.0 0.00 0.09 0.09 74 1016.2
20260904211602 64 233 5.2 11.3 0.00 0.09 0.09 74 1016.3
20260904211105 65 274 5.2 9.6 0.00 0.09 0.09 74 1016.3
20260904210608 65 231 5.2 10.4 0.00 0.09 0.09 74 1016.3
20260904210601 65 231 6.1 10.4 0.00 0.09 0.09 73 1016.2
20260904205608 65 239 6.1 13.0 0.00 0.09 0.09 74 1016.3
20260904205602 65 239 6.1 13.0 0.00 0.09 0.09 74 1016.2
20260904204602 65 229 6.1 13.0 0.00 0.09 0.09 74 1016.3
20260904204106 65 247 5.2 13.0 0.00 0.09 0.09 75 1016.3
20260904204055 65 233 5.2 9.6 0.00 0.09 0.09 75 1016.1
20260904203105 65 231 5.2 9.6 0.00 0.09 0.09 76 1016.1
20260904202604 65 230 6.1 10.4 0.00 0.09 0.09 76 1016.1
20260904202116 65 237 5.2 11.3 0.00 0.09 0.09 76 1015.9
20260904202106 65 245 6.1 10.4 0.00 0.09 0.09 76 1016.0
20260904201104 65 233 4.3 11.3 0.00 0.09 0.09 76 1016.1
20260904201045 65 229 4.3 9.6 0.00 0.09 0.09 76 1016.0
20260904200104 65 254 4.3 9.6 0.00 0.09 0.09 76 1015.9
20260904195603 65 242 4.3 8.7 0.00 0.09 0.09 76 1015.8
20260904195104 65 210 4.3 7.8 0.00 0.09 0.09 76 1015.7
20260904194604 65 262 4.3 7.8 0.00 0.09 0.09 76 1015.7
20260904194105 65 229 3.5 8.7 0.00 0.09 0.09 75 1015.6
20260904193602 65 239 3.5 8.7 0.00 0.09 0.09 75 1015.5
20260904193102 65 239 2.6 7.0 0.00 0.09 0.09 75 1015.6
20260904193051 65 236 3.5 7.8 0.00 0.09 0.09 74 1015.5
20260904192102 66 226 4.3 8.7 0.00 0.09 0.09 74 1015.4
20260904191609 66 232 5.2 9.6 0.00 0.09 0.09 74 1015.3
20260904191105 66 230 6.1 11.3 0.00 0.09 0.09 74 1015.4
20260904191052 66 241 7.0 13.0 0.00 0.09 0.09 74 1015.3
20260904190110 66 237 6.1 15.6 0.00 0.09 0.09 74 1015.2
20260904185604 66 247 5.2 15.6 0.00 0.09 0.09 75 1015.1
20260904185105 66 252 4.3 9.6 0.00 0.09 0.09 76 1015.0
20260904184608 66 249 4.3 9.6 0.00 0.09 0.09 76 1014.8
20260904184102 66 266 6.1 13.9 0.00 0.09 0.09 76 1015.0
20260904183604 66 272 6.1 13.9 0.00 0.09 0.09 76 1014.9
20260904183253 66 259 5.2 11.3 0.00 0.09 0.09 76 1014.7
20260904183150 66 232 5.2 13.0 0.00 0.09 0.09 76 1014.8
20260904182641 66 260 5.2 11.3 0.00 0.09 0.09 76 1014.7
20260904181604 66 229 7.0 13.0 0.00 0.09 0.09 76 1014.6
20260904181105 66 241 7.0 13.0 0.00 0.09 0.09 76 1014.5
20260904180603 66 249 7.0 13.9 0.00 0.09 0.09 76 1014.6
20260904180134 66 266 6.1 10.4 0.00 0.09 0.09 75 1014.5
20260904180114 66 242 6.1 13.9 0.00 0.09 0.09 76 1014.5
20260904175105 67 282 7.0 13.9 0.00 0.09 0.09 75 1014.5
20260904174607 67 235 7.0 15.6 0.00 0.09 0.09 75 1014.6
20260904174551 67 225 7.0 15.6 0.00 0.09 0.09 74 1014.5
20260904173604 67 233 7.8 14.8 0.00 0.09 0.09 74 1014.3
20260904173101 67 239 7.8 13.0 0.00 0.09 0.09 74 1014.2
20260904172603 67 239 7.8 16.5 0.00 0.09 0.09 74 1014.3
20260904172103 67 219 7.8 16.5 0.00 0.09 0.09 74 1014.1
20260904171602 67 248 7.8 14.8 0.00 0.09 0.09 74 1014.0
20260904171102 67 224 8.7 16.5 0.00 0.09 0.09 74 1014.2
20260904170604 67 254 9.6 16.5 0.00 0.09 0.09 74 1014.0
20260904170104 67 256 10.4 20.0 0.00 0.09 0.09 74 1014.1
20260904165602 67 233 9.6 20.0 0.00 0.09 0.09 74 1013.8
20260904165103 67 254 8.7 16.5 0.00 0.09 0.09 75 1013.8
20260904164604 67 232 8.7 17.4 0.00 0.09 0.09 76 1013.6
20260904164553 67 216 8.7 17.4 0.00 0.09 0.09 77 1013.6
20260904163602 68 273 8.7 20.0 0.00 0.09 0.09 78 1013.8
20260904163106 68 261 9.6 20.0 0.00 0.09 0.09 78 1013.7
20260904162628 68 274 7.8 20.0 0.00 0.09 0.09 79 1013.4
20260904162607 68 245 7.8 20.0 0.00 0.09 0.09 79 1013.6
20260904161606 68 245 9.6 20.0 0.00 0.09 0.09 78 1013.6
20260904161559 68 251 7.8 20.0 0.00 0.09 0.09 78 1013.3
20260904160604 68 237 8.7 19.1 0.00 0.09 0.09 78 1013.3
20260904160104 68 242 10.4 19.1 0.00 0.09 0.09 77 1013.5
20260904155603 68 262 10.4 20.0 0.00 0.09 0.09 77 1013.4
20260904155551 68 231 7.8 17.4 0.00 0.09 0.09 78 1013.4
20260904155308 68 226 10.4 20.0 0.00 0.09 0.09 77 1013.5
20260904154105 68 250 7.8 14.8 0.00 0.09 0.09 79 1013.2
20260904153602 68 256 9.6 17.4 0.00 0.09 0.09 79 1013.4
20260904153104 68 236 9.6 17.4 0.00 0.09 0.09 79 1013.4
20260904152559 68 191 9.6 22.6 0.00 0.09 0.09 79 1013.4
20260904152100 68 243 10.4 22.6 0.00 0.09 0.09 78 1013.3
20260904151558 68 234 10.4 25.2 0.00 0.09 0.09 78 1013.4
20260904151101 68 246 11.3 25.2 0.00 0.09 0.09 78 1013.4
20260904150558 68 256 12.2 23.5 0.00 0.09 0.09 79 1013.2
20260904150059 68 233 12.2 24.3 0.00 0.09 0.09 79 1013.2
20260904150047 68 245 9.6 20.0 0.00 0.09 0.09 82 1013.0
20260904145807 68 240 10.4 24.3 0.00 0.09 0.09 80 1013.2
20260904144602 68 236 8.7 14.8 0.00 0.09 0.09 84 1012.9
20260904144059 68 215 8.7 13.9 0.00 0.09 0.09 85 1012.9
20260904143600 68 233 9.6 17.4 0.00 0.09 0.09 86 1013.0
20260904143054 68 242 9.6 17.4 0.00 0.09 0.09 86 1013.1
20260904142555 67 229 9.6 17.4 0.00 0.09 0.09 88 1012.9
20260904142057 67 244 8.7 18.2 0.00 0.09 0.09 88 1012.7
20260904141555 67 209 7.0 18.2 0.00 0.09 0.09 90 1012.6
20260904141054 67 258 7.0 13.9 0.00 0.09 0.09 90 1012.6
20260904140555 67 185 7.0 15.6 0.00 0.09 0.09 90 1012.7
20260904140056 67 229 7.8 15.6 0.00 0.09 0.09 91 1012.8
20260904135557 67 233 7.8 12.2 0.00 0.09 0.09 91 1012.7
20260904135110 66 214 9.6 18.2 0.00 0.09 0.09 91 1012.4
20260904135055 66 205 8.7 18.2 0.00 0.09 0.09 91 1012.6
20260904134054 66 229 9.6 18.2 0.00 0.09 0.09 91 1012.3
20260904133554 66 255 9.6 23.5 0.00 0.09 0.09 92 1012.4
20260904133055 66 235 8.7 23.5 0.00 0.09 0.09 92 1012.1
20260904132554 66 238 8.7 18.2 0.00 0.09 0.09 93 1012.2
20260904132053 66 214 9.6 14.8 0.00 0.09 0.09 94 1012.1
20260904131554 66 228 8.7 17.4 0.00 0.09 0.09 94 1012.2
20260904131546 66 259 8.7 17.4 0.01 0.09 0.09 94 1012.2
20260904131040 66 230 7.8 15.6 0.01 0.09 0.09 95 1012.0
20260904130051 66 222 7.0 14.8 0.01 0.09 0.09 95 1012.2
20260904125553 66 242 6.1 12.2 0.01 0.09 0.09 95 1012.1
20260904125054 66 256 6.1 12.2 0.02 0.09 0.09 95 1012.1
20260904124555 66 262 7.8 16.5 0.07 0.09 0.09 95 1012.1
20260904124053 66 231 9.6 16.5 0.07 0.09 0.09 95 1011.9
20260904123553 66 239 9.6 17.4 0.07 0.09 0.09 95 1012.0
20260904123056 66 200 10.4 20.0 0.07 0.09 0.09 95 1011.9
20260904122555 66 256 10.4 20.0 0.08 0.09 0.09 94 1011.9
20260904122054 66 231 9.6 20.9 0.09 0.09 0.09 95 1011.8
20260904121552 66 288 10.4 20.9 0.09 0.09 0.08 94 1011.8
20260904121055 66 231 9.6 17.4 0.08 0.08 0.08 94 1011.8
20260904121043 66 250 7.8 17.4 0.08 0.08 0.08 94 1011.7
20260904120052 66 247 7.8 16.5 0.08 0.08 0.08 93 1011.6
20260904115548 67 281 8.7 16.5 0.08 0.08 0.08 92 1011.6
20260904115049 67 281 7.0 13.9 0.07 0.07 0.06 91 1011.5
20260904114550 68 278 7.0 19.1 0.02 0.02 0.02 91 1011.2
20260904114049 69 274 9.6 19.1 0.02 0.02 0.02 92 1011.3
20260904113553 69 229 10.4 22.6 0.02 0.02 0.02 92 1011.0
20260904113542 70 239 11.3 22.6 0.02 0.02 0.02 91 1011.1
20260904112549 70 225 11.3 21.7 0.01 0.01 0.01 90 1011.1
20260904112048 70 237 13.0 30.4 0.00 0.00 0.00 89 1011.0
20260904111548 70 249 13.0 30.4 0.00 0.00 0.00 89 1011.0
20260904111541 71 218 12.2 27.8 0.00 0.01 0.00 87 1010.8
20260904110600 71 139 13.0 26.9 0.00 0.01 0.00 86 1010.9
20260904110055 72 277 13.9 28.7 0.00 0.01 0.00 84 1010.8
20260904110044 72 179 13.0 26.9 0.00 0.01 0.00 85 1011.0
20260904105037 72 48 13.9 28.7 0.00 0.01 0.00 84 1010.9
20260904104535 72 239 13.9 26.1 0.00 0.01 0.00 85 1011.0
20260904104033 72 229 13.0 26.1 0.00 0.01 0.00 85 1011.0
20260904103535 72 238 13.9 26.1 0.00 0.01 0.00 85 1010.9
20260904103031 71 206 14.8 30.4 0.00 0.01 0.00 85 1010.9
20260904102532 71 194 13.9 30.4 0.00 0.01 0.00 85 1010.9
20260904102035 71 229 13.9 26.9 0.00 0.01 0.00 85 1011.0
20260904101552 71 241 14.8 28.7 0.00 0.01 0.00 87 1011.3
20260904101533 71 218 13.9 24.3 0.00 0.01 0.00 86 1011.0
20260904100530 71 214 13.9 29.5 0.00 0.01 0.00 87 1011.0